Preview of NWS' New Version of Forecast
This preview is not operational and should not be used for support decisions.
Latest weather observations around

Bremerton, Bremerton National Airport (KPWT)

Using English Units (Switch to International System of Units)
Date/ Time (PDT) Wind (mph) Vis. (mi) Weather Sky Cond. Temp (°F) Rel. Humidity Wind Chill (°F) Heat Index (°F) Pressure Precip. (in)
Air Dwpt 6 hour Altimeter (inHg) Sea level (inHg) 1 hr 3 hr 6 hr
Max Min
Apr 20 08:56 SW 5 10 Clear CLR 46 41     82% 44            
Apr 20 06:56 Calm 6 Fog/Mist BKN120 37 36     96%     30.26 30.32      
Apr 20 05:56 Calm 9 Clear CLR 35 34     96%     30.25 30.31      
Apr 20 03:56 Calm 10 Clear CLR 37 36     96%     30.27        
Apr 20 02:56 Calm 10 Cloudy OVC110 43 40     89%     30.27 30.33      
Apr 20 00:56 Calm 10 Cloudy OVC110 42 38     85%     30.28 30.34      
Apr 19 23:56 Calm 10 Mostly Cloudy BKN110 41 37     86%     30.27 30.33      
Apr 19 21:56 E 3 10 Clear CLR 48 36     63% 47   30.26        
Apr 19 20:56 NE 7 10 Mostly Cloudy BKN055 51 38     61%     30.25 30.31      
Apr 19 18:56 NE 8 10 Clear CLR 57 38     49%     30.23 30.29      
Apr 19 17:56 ENE 7 10 Cloudy OVC065 58 40     51%     30.24 30.29      
Apr 19 15:56 NE 7 10 Cloudy OVC065 59 38     45%     30.25 30.3      
Apr 19 14:56 E 6 10 Clear CLR 59 38     45%     30.25 30.3      
Apr 19 12:56 Calm 10 Clear CLR 56 36     47%     30.26 30.32      
Apr 19 11:56 Calm 10 Clear CLR 55 36     48%     30.27 30.33      
Apr 19 09:56 Calm 10 Clear CLR 51 38     61%     30.28 30.34      
Apr 19 06:56 E 3 10 Clear CLR 34 34     100% 31   30.23 30.29      
Apr 19 05:56 Calm 10 Clear CLR 32 32     100%     30.22 30.28      
Apr 19 03:56 Calm 10 Clear CLR 33 32     96%     30.21 30.27      
Apr 19 02:56 Calm 10 Clear CLR 36 34     92%     30.21 30.27      
Apr 19 00:56 NE 7 10 Clear CLR 43 36     76% 39   30.2 30.26      
Apr 18 23:56 NE 7 10 Clear CLR 45 37     74% 41   30.2 30.25      
Apr 18 21:56 ENE 7 10 Mostly Cloudy BKN100 47 37     68% 44   30.19 30.24      
Apr 18 20:56 NE 6 10 Partly Cloudy SCT085 47 38     71% 44   30.18 30.24      
Apr 18 18:56 ENE 10 10 Clear CLR 54 37     53%     30.16 30.22      
Apr 18 17:56 NE 13 10 Clear CLR 55 36     48%     30.15 30.21      
Apr 18 15:56 NE 9 10 Clear CLR 56 38     51%     30.16 30.22      
Apr 18 14:56   10 Clear CLR 56 38     51%     30.18 30.23      
Apr 18 13:56 NE 13 10 Clear   54 38     55%     30.19        
Apr 18 12:56 NNE 8 10 Mostly Cloudy BKN033 51 37     59%     30.21        
Apr 18 12:18 NNE 10 10 Rain SCT029 50 37     62% 46   30.21   0    
Apr 18 11:56 NE 10 10 Mostly Cloudy BKN027 50 38     63% 46   30.21 30.27 0    
Apr 18 11:28 N 9 10 Light Rain BKN023 52 39     62%     30.22   0    
Apr 18 11:20 N 10 10 Light Rain SCT023 50 39     66% 46   30.22   0    
Apr 18 11:11 ENE 9 10 Light Rain BKN023 48 39     71% 44   30.22   0    
Apr 18 10:56 NNE 11 10 Mostly Clear FEW021 49 40     71% 44   30.22 30.28      
Apr 18 10:47 NE 8 10 Partly Cloudy SCT019 48 39     71% 45   30.23        
Apr 18 10:32 NE 7 10 Mostly Cloudy BKN019 BKN090 48 39     71% 45   30.23        
Apr 18 09:56 NNE 8 10 Cloudy FEW013 OVC090 46 40     79% 42   30.23 30.29      
Apr 18 08:56 ENE 6 10 Mostly Cloudy BKN095 45 41     86% 42   30.22 30.28      
Apr 18 08:06 N 6 10 Mostly Cloudy FEW009 SCT026 BKN090 45 41     87% 41   30.22        
Apr 18 07:56 N 7 10 Mostly Cloudy SCT009 BKN026 BKN090 44 41     89% 40   30.22 30.28      
Apr 18 06:56 Calm 10 Cloudy OVC009 41 40     96%     30.22 30.28      
Apr 18 06:31 Calm 10 Cloudy OVC007 41 39     93%     30.22        
Apr 18 06:24 E 3 10 Cloudy BKN005 OVC014 41 39     93% 39   30.22        
Apr 18 06:12 E 5 10 Cloudy SCT007 OVC012 39 39     100% 36   30.22        
Apr 18 05:56 E 3 10 Cloudy OVC012 40 39     97% 38   30.22 30.28      
Apr 18 05:10 Calm 10 Cloudy OVC010 39 37     93%     30.23        
Apr 18 04:42 Calm 10 Mostly Cloudy BKN008 BKN034 BKN100 37 37     100%     30.24        
Apr 18 04:32 Calm 10 Mostly Cloudy SCT008 BKN034 BKN100 37 37     100%     30.24        
Apr 18 03:56 Calm 10 Mostly Clear FEW100 37 36     96%     30.24 30.3      
Apr 18 02:56 Calm 10 Mostly Clear FEW110 37 36     96%     30.25 30.31      
Apr 18 01:56 Calm 10 Clear CLR 36 35     96%     30.25 30.31      
Apr 18 00:56 Calm 10 Clear CLR 38 37     97%     30.26 30.32      
Apr 17 23:56 S 3 10 Clear CLR 39 37     93% 37   30.26 30.31      
Apr 17 21:56   10 Clear CLR 42 38     85%              
Apr 17 20:56 SSW 6 10 Clear CLR 43 38     82% 39   30.25 30.31      
Apr 17 19:56 SW 7 10 Clear CLR 46 37     71% 42   30.24 30.29      
Apr 17 18:56 7 10 Clear CLR 48 38     68% 45   30.23 30.29      
Apr 17 17:56 SW 15 10 Clear CLR 49 37     63% 43   30.22 30.28      
Apr 17 15:56   10 Clear CLR 50 38     63%     30.22 30.28      
Apr 17 14:56   10 Clear CLR 51 38     61%     30.21 30.27      
Apr 17 12:56   10 Clear CLR 51 38     61%     30.19 30.24      
Apr 17 11:56 SSW 21 10 Partly Cloudy and Windy SCT075 50 37     61% 43   30.18 30.23      
Apr 17 09:56   10 Clear CLR 47 37     68%     30.13 30.18      
Apr 17 08:56 SW 16 10 Partly Cloudy SCT018 45 38     76% 38   30.11 30.17      
Jun 11 09:56 SSW 3 10 Cloudy OVC005 52 49     89%     30.06        
Jun 10 19:56 NNE 5 10 Clear CLR 62 45     53%     29.9 29.95      
Jun 10 15:56 WSW 3 10 Cloudy SCT046 OVC060 61 46     58%     29.86        
Notice The following observation data may not be complete
Jun 10 08:40   10 Cloudy OVC006          %              
Jun 10 02:15 WSW 7 10 Cloudy OVC004 48 46     93% 45   29.87        
Jun 09 16:56 SSW 8 10 Light Rain FEW026 58 46     65%     29.83 29.89 0   0
Jun 09 04:36 Calm 10 Cloudy SCT021 BKN028 OVC048 48 46     93%     29.93        
Jun 08 09:48 SSW 9 10 Light Rain BKN006 OVC030 55 54     94%     29.68   0    
Jun 08 04:56 SW 3 10 Light Rain SCT002 BKN010 OVC043 52 52     100%     29.64   0   0
Jun 07 09:56 Calm 10 Clear   67 49     52%     29.8        
Jun 06 02:56 E 5 10 Clear   54 43     66%     30.03        
Jun 05 16:56 ENE 9 10 Clear   71 39     31%   69 30.07